Zurück zum Katalog

TIROS 6 DEB

AktivLEO
NORAD 29006·DEBRIS·🇺🇸 United States

Gestartet Sep 18, 1962 von Cape Canaveral Space Force Station

Loading…

Nächste Überflüge (nächste 24 Stunden)

TLE

AktuellSource: Space-Track

Epoche: Sep 13, 2026, 16:17 UTC

1 29006U 62047F   26256.67858647  .00000359  00000-0  64824-4 0  9993
2 29006  58.3104  43.9326 0015258 103.9144 256.3598 14.86023629714786

Verfolge TIROS 6 DEB in Echtzeit mit AllMySat

Download on the App Store